FW7026 Weather Reports


Display with metric or nautical units.
time (UTC)temp
F
wind
direction
speed
MPH
gust
MPH
rain 1hr
in
rain 24hr
in
rain mn
in
humidity
%
barometer
mb
20260510155459 51 170 0.0 0.0 0.00 0.11 0.11 92 1008.8
20260510154955 50 213 0.0 0.0 0.00 0.11 0.11 92 1008.4
20260510154451 50 132 0.0 0.0 0.00 0.11 0.11 92 1008.8
20260510153950 50 154 0.0 0.0 0.00 0.11 0.11 92 1008.8
20260510153446 51 236 0.0 0.0 0.00 0.11 0.11 92 1008.8
20260510152943 50 194 0.0 5.0 0.00 0.11 0.11 92 1008.8
20260510152441 50 225 0.0 2.0 0.00 0.11 0.11 92 1008.8
20260510151937 50 181 0.0 0.0 0.00 0.11 0.11 92 1008.8
20260510151434 50 243 0.0 0.0 0.00 0.11 0.11 92 1009.1
20260510150930 50 214 4.0 13.0 0.00 0.11 0.11 92 1009.1
20260510150426 50 209 0.0 2.0 0.00 0.11 0.11 92 1008.8
20260510145922 50 193 2.0 10.0 0.00 0.11 0.11 92 1008.8
20260510145419 50 174 0.0 10.0 0.00 0.11 0.11 92 1008.8
20260510144915 50 168 4.0 5.0 0.00 0.11 0.11 92 1008.8
20260510144412 50 175 0.0 5.0 0.00 0.11 0.11 92 1008.8
20260510143907 50 178 0.0 2.0 0.00 0.11 0.11 92 1008.8
20260510143403 50 143 2.0 5.0 0.00 0.11 0.11 92 1008.8
20260510142900 49 147 0.0 8.0 0.00 0.11 0.11 92 1008.4
20260510142357 49 152 1.0 5.0 0.00 0.11 0.11 92 1008.4
20260510141854 49 145 1.0 2.0 0.07 0.11 0.11 92 1008.4
20260510141351 49 220 0.0 0.0 0.07 0.11 0.11 92 1008.8
20260510140848 49 179 0.0 5.0 0.00 0.09 0.09 92 1008.8
20260510140344 49 189 0.0 5.0 0.00 0.09 0.09 92 1008.8
20260510135837 49 207 0.0 0.0 0.00 0.09 0.09 92 1008.8
20260510135333 49 152 0.0 2.0 0.00 0.09 0.09 92 1008.8
20260510134831 48 161 7.0 8.0 0.00 0.09 0.09 92 1008.8
20260510134328 48 206 0.0 8.0 0.00 0.09 0.09 92 1008.8
20260510133824 48 181 0.0 5.0 0.00 0.09 0.09 92 1008.8
20260510133320 48 131 0.0 0.0 0.00 0.09 0.09 92 1008.8
20260510132815 48 296 0.0 5.0 0.07 0.09 0.09 92 1008.4
20260510132314 48 211 2.0 2.0 0.07 0.09 0.09 92 1008.8
20260510131810 48 226 0.0 5.0 0.14 0.08 0.08 92 1008.8
20260510131308 48 150 5.0 8.0 0.07 0.07 0.07 92 1008.8
20260510130805 48 165 7.0 10.0 0.07 0.06 0.06 92 1008.8
20260510130301 48 209 0.0 8.0 0.07 0.06 0.06 92 1008.8
20260510125758 48 236 0.0 5.0 0.07 0.05 0.05 92 1008.8
20260510125254 48 140 3.0 5.0 0.21 0.05 0.05 92 1008.8
20260510124751 48 179 0.0 5.0 0.14 0.02 0.02 92 1008.8
20260510124248 47 211 0.0 8.0 0.07 0.01 0.01 92 1009.1
20260510123743 47 150 6.0 8.0 0.00 0.00 0.00 92 1009.1
20260510123240 47 192 0.0 8.0 0.00 0.00 0.00 92 1009.1
20260510122736 47 134 0.0 10.0 0.00 0.00 0.00 92 1008.8
20260510122232 47 218 0.0 10.0 0.00 0.00 0.00 92 1009.1
20260510121728 47 172 0.0 2.0 0.00 0.00 0.00 92 1009.1
20260510121226 47 225 3.0 8.0 0.00 0.00 0.00 92 1009.1
20260510120724 47 176 0.0 0.0 0.00 0.00 0.00 92 1009.1
20260510120220 47 296 0.0 0.0 0.00 0.00 0.00 92 1009.1
20260510115716 47 168 0.0 8.0 0.00 0.00 0.00 91 1009.1
20260510115214 47 159 0.0 2.0 0.00 0.00 0.00 91 1009.1
20260510114709 47 112 0.0 0.0 0.00 0.00 0.00 91 1009.1
20260510114206 47 208 0.0 0.0 0.00 0.00 0.00 91 1009.1
20260510113701 47 85 0.0 0.0 0.00 0.00 0.00 91 1009.1
20260510113159 47 120 3.0 8.0 0.00 0.00 0.00 91 1009.1
20260510112655 47 172 0.0 0.0 0.00 0.00 0.00 91 1009.1
20260510112152 47 89 0.0 0.0 0.00 0.00 0.00 91 1009.5
20260510111648 46 258 0.0 0.0 0.00 0.00 0.00 91 1009.1
20260510111145 46 159 0.0 0.0 0.00 0.00 0.00 91 1009.1
20260510110639 46 87 0.0 0.0 0.00 0.00 0.00 91 1009.1
20260510110137 46 237 0.0 0.0 0.00 0.00 0.00 91 1009.1
20260510105633 46 140 0.0 0.0 0.00 0.00 0.00 91 1009.1
20260510105132 46 183 0.0 0.0 0.00 0.00 0.00 91 1009.1
20260510104630 46 164 0.0 0.0 0.00 0.00 0.00 91 1009.1
20260510104126 46 164 0.0 0.0 0.00 0.00 0.00 91 1009.1
20260510103623 45 166 0.0 0.0 0.00 0.00 0.00 91 1009.1
20260510103119 45 184 0.0 0.0 0.00 0.00 0.00 91 1009.1
20260510102614 45 186 0.0 0.0 0.00 0.00 0.00 91 1009.1
20260510102111 45 181 0.0 5.0 0.00 0.00 0.00 91 1009.1
20260510101609 45 212 0.0 8.0 0.00 0.00 0.00 91 1009.1
20260510101107 45 135 0.0 0.0 0.00 0.00 0.00 91 1009.1
20260510100602 44 180 0.0 0.0 0.00 0.00 0.00 91 1009.1
20260510100100 44 158 0.0 0.0 0.00 0.00 0.00 91 1009.1
20260510095556 44 154 0.0 0.0 0.00 0.00 0.00 91 1009.1
20260510095050 44 204 0.0 0.0 0.00 0.00 0.00 91 1009.5
20260510094550 44 182 0.0 0.0 0.00 0.00 0.00 91 1009.5
20260510094045 44 192 0.0 0.0 0.00 0.00 0.00 91 1009.5
20260510093542 44 222 0.0 0.0 0.00 0.00 0.00 91 1009.5
20260510093039 43 214 0.0 0.0 0.00 0.00 0.00 90 1009.5
20260510092536 43 77 0.0 0.0 0.00 0.00 0.00 90 1009.5
20260510092035 43 216 0.0 0.0 0.00 0.00 0.00 90 1009.1
20260510091532 43 170 0.0 0.0 0.00 0.00 0.00 90 1009.5
20260510091028 43 116 0.0 8.0 0.00 0.00 0.00 89 1009.1
20260510090525 43 140 0.0 0.0 0.00 0.00 0.00 89 1009.5
20260510090021 43 161 0.0 2.0 0.00 0.00 0.00 88 1009.5
20260510085521 43 174 0.0 0.0 0.00 0.00 0.00 87 1009.5
20260510085017 43 245 0.0 0.0 0.00 0.00 0.00 87 1009.5
20260510084514 43 45 0.0 0.0 0.00 0.00 0.00 85 1009.5
20260510084011 43 276 0.0 0.0 0.00 0.00 0.00 85 1009.5
20260510083508 43 157 0.0 0.0 0.00 0.00 0.00 83 1009.5
20260510083004 43 150 0.0 2.0 0.00 0.00 0.00 83 1009.9
20260510082501 43 166 0.0 0.0 0.00 0.00 0.00 82 1009.5
20260510082001 43 161 0.0 10.0 0.00 0.00 0.00 81 1009.9
20260510081456 43 78 0.0 0.0 0.00 0.00 0.00 81 1009.9
20260510080952 43 176 0.0 0.0 0.00 0.00 0.00 81 1009.9
20260510080451 43 236 0.0 0.0 0.00 0.00 0.00 80 1009.9
20260510075948 43 51 0.0 0.0 0.00 0.00 0.00 80 1009.9
20260510075446 43 206 0.0 0.0 0.00 0.00 0.00 79 1009.9
20260510074942 43 177 0.0 5.0 0.00 0.00 0.00 79 1009.9
20260510074440 42 149 0.0 0.0 0.00 0.00 0.00 78 1009.9
20260510073936 42 121 0.0 0.0 0.00 0.00 0.00 78 1009.9
20260510073432 42 168 0.0 0.0 0.00 0.00 0.00 78 1010.2
20260510072928 42 75 0.0 0.0 0.00 0.00 0.00 78 1010.2
20260510072425 42 132 0.0 0.0 0.00 0.00 0.00 77 1010.2
20260510071920 42 167 0.0 2.0 0.00 0.00 0.00 77 1009.9
20260510071418 42 226 0.0 0.0 0.00 0.00 0.00 77 1009.9
20260510070916 42 144 0.0 2.0 0.00 0.00 0.00 76 1009.9
20260510070413 42 243 0.0 0.0 0.00 0.00 0.00 76 1009.9
20260510065908 42 151 0.0 2.0 0.00 0.00 0.00 76 1009.9
20260510065404 42 152 3.0 5.0 0.00 0.00 0.00 76 1009.9
20260510064901 42 136 0.0 0.0 0.00 0.00 0.00 75 1009.9
20260510064359 42 185 0.0 0.0 0.00 0.00 0.00 75 1010.2
20260510063855 42 207 0.0 0.0 0.00 0.00 0.00 75 1010.2
20260510063352 42 197 0.0 0.0 0.00 0.00 0.00 75 1010.2
20260510062849 42 117 0.0 2.0 0.00 0.00 0.00 75 1010.2
20260510062344 42 185 0.0 5.0 0.00 0.00 0.00 75 1010.2
20260510061839 42 225 0.0 2.0 0.00 0.00 0.00 74 1010.2
20260510061336 42 177 0.0 2.0 0.00 0.00 0.00 74 1010.2
20260510060832 42 145 0.0 0.0 0.00 0.00 0.00 74 1010.2
20260510060330 42 163 0.0 0.0 0.00 0.00 0.00 73 1010.2
20260510055827 42 149 0.0 0.0 0.00 0.00 0.00 73 1010.6
20260510055325 42 160 0.0 0.0 0.00 0.00 0.00 73 1010.6
20260510054825 42 224 0.0 0.0 0.00 0.00 0.00 72 1010.6
20260510054320 42 158 0.0 0.0 0.00 0.00 0.00 72 1010.6
20260510053816 42 112 0.0 0.0 0.00 0.00 0.00 71 1010.6
20260510053311 43 97 0.0 2.0 0.00 0.00 0.00 71 1010.6
20260510052808 42 174 0.0 0.0 0.00 0.00 0.00 71 1010.6
20260510052306 42 197 0.0 0.0 0.00 0.00 0.00 70 1010.6
20260510051800 42 155 0.0 0.0 0.00 0.00 0.00 70 1010.9
20260510051257 42 348 0.0 2.0 0.00 0.00 0.00 70 1010.6
20260510050754 42 215 0.0 0.0 0.00 0.00 0.00 70 1010.9
20260510050250 42 225 0.0 0.0 0.00 0.00 0.00 69 1010.9
20260510045748 42 127 0.0 0.0 0.00 0.00 0.00 69 1010.9
20260510045244 42 199 0.0 2.0 0.00 0.00 0.00 69 1010.9
20260510044741 42 112 0.0 0.0 0.00 0.00 0.00 69 1011.2
20260510044239 42 150 0.0 0.0 0.00 0.00 0.00 69 1011.2
20260510043734 42 137 0.0 0.0 0.00 0.00 0.00 69 1011.2
20260510043231 42 231 0.0 0.0 0.00 0.00 0.00 69 1011.2
20260510042728 42 287 0.0 0.0 0.00 0.00 0.00 69 1011.2
20260510042223 42 131 0.0 0.0 0.00 0.00 0.00 68 1011.6
20260510041721 42 220 0.0 0.0 0.00 0.00 0.00 68 1011.6
20260510041218 42 189 0.0 0.0 0.00 0.00 0.00 68 1011.6
20260510040715 42 190 0.0 0.0 0.00 0.00 0.00 67 1011.6
20260510040212 42 163 0.0 0.0 0.00 0.00 0.00 66 1011.6
20260510035707 42 186 0.0 0.0 0.00 0.00 0.00 66 1011.6
20260510035203 42 188 0.0 0.0 0.00 0.00 0.00 65 1011.6
20260510034659 42 177 0.0 0.0 0.00 0.00 0.00 65 1011.6
20260510034157 42 194 0.0 0.0 0.00 0.00 0.00 64 1011.6
20260510033653 42 110 0.0 2.0 0.00 0.00 0.00 63 1011.6
20260510033151 42 194 0.0 2.0 0.00 0.00 0.00 63 1011.6
20260510032647 42 187 0.0 0.0 0.00 0.00 0.00 63 1011.6
20260510032143 43 108 0.0 0.0 0.00 0.00 0.00 62 1011.6
20260510031637 43 172 0.0 0.0 0.00 0.00 0.00 62 1011.6
20260510031134 43 155 0.0 0.0 0.00 0.00 0.00 61 1011.6
20260510030629 43 144 0.0 0.0 0.00 0.00 0.00 61 1011.9
20260510030127 43 175 0.0 0.0 0.00 0.00 0.00 60 1011.9
20260510025623 44 195 0.0 0.0 0.00 0.00 0.00 60 1011.9
20260510025121 44 196 0.0 0.0 0.00 0.00 0.00 59 1011.9
20260510024618 44 170 0.0 0.0 0.00 0.00 0.00 59 1011.6
20260510024114 44 144 0.0 0.0 0.00 0.00 0.00 59 1011.9
20260510023610 44 157 0.0 0.0 0.00 0.00 0.00 59 1011.9
20260510023108 44 120 0.0 0.0 0.00 0.00 0.00 58 1011.6
20260510022607 45 180 0.0 0.0 0.00 0.00 0.00 57 1011.9
20260510022102 45 158 0.0 0.0 0.00 0.00 0.00 56 1011.6
20260510021558 45 223 0.0 0.0 0.00 0.00 0.00 56 1011.6
20260510021056 45 296 0.0 0.0 0.00 0.00 0.00 56 1011.6
20260510020550 46 93 0.0 0.0 0.00 0.00 0.00 55 1011.6
20260510020046 46 192 0.0 0.0 0.00 0.00 0.00 55 1011.6
20260510015542 46 121 0.0 0.0 0.00 0.00 0.00 54 1011.6
20260510015038 46 233 0.0 0.0 0.00 0.00 0.00 54 1011.6
20260510014534 47 213 0.0 0.0 0.00 0.00 0.00 52 1011.6
20260510014032 47 179 0.0 13.0 0.00 0.00 0.00 51 1011.6
20260510013526 47 179 0.0 0.0 0.00 0.00 0.00 51 1011.6
20260510013022 47 211 0.0 0.0 0.00 0.00 0.00 51 1011.6
20260510012516 47 244 0.0 0.0 0.00 0.00 0.00 50 1011.6
20260510012013 47 193 0.0 0.0 0.00 0.00 0.00 49 1011.6
20260510011507 48 189 0.0 0.0 0.00 0.00 0.00 49 1011.6
20260510011003 48 189 0.0 0.0 0.00 0.00 0.00 48 1011.6
20260510010500 48 184 0.0 0.0 0.00 0.00 0.00 47 1011.2
20260510005957 49 193 0.0 0.0 0.00 0.00 0.00 46 1011.2
20260510005453 49 74 0.0 0.0 0.00 0.00 0.00 46 1011.2
20260510004951 49 192 0.0 0.0 0.00 0.00 0.00 45 1010.9
20260510004447 50 172 0.0 2.0 0.00 0.00 0.00 44 1010.9
20260510003946 50 248 0.0 0.0 0.00 0.00 0.00 44 1010.9
20260510003442 50 146 0.0 2.0 0.00 0.00 0.00 44 1010.9
20260510002943 50 223 0.0 0.0 0.00 0.00 0.00 44 1010.9
20260510002439 50 323 0.0 0.0 0.00 0.00 0.00 43 1010.9
20260510001935 50 170 0.0 0.0 0.00 0.00 0.00 43 1010.9
20260510001433 50 250 0.0 0.0 0.00 0.00 0.00 41 1010.6
20260510000931 50 205 0.0 0.0 0.00 0.00 0.00 41 1010.6
20260510000427 51 111 0.0 0.0 0.00 0.00 0.00 40 1010.6
20260509235923 51 178 0.0 0.0 0.00 0.00 0.00 40 1010.6
20260509235420 51 137 0.0 0.0 0.00 0.00 0.00 39 1010.6
20260509234916 51 167 0.0 0.0 0.00 0.00 0.00 39 1010.6
20260509234413 51 208 0.0 0.0 0.00 0.00 0.00 38 1010.6
20260509233911 52 174 0.0 0.0 0.00 0.00 0.00 37 1010.6
20260509233409 52 206 0.0 0.0 0.00 0.00 0.00 37 1010.2
20260509232904 53 178 0.0 0.0 0.00 0.00 0.00 36 1010.6
20260509232403 53 156 0.0 0.0 0.00 0.00 0.00 36 1010.2
20260509231858 53 188 0.0 0.0 0.00 0.00 0.00 36 1010.2
20260509231355 54 222 0.0 0.0 0.00 0.00 0.00 35 1010.2
20260509230853 54 157 0.0 2.0 0.00 0.00 0.00 34 1010.6
20260509230350 54 95 0.0 0.0 0.00 0.00 0.00 35 1010.2
20260509225845 54 201 0.0 0.0 0.00 0.00 0.00 34 1010.2
20260509225342 54 202 0.0 0.0 0.00 0.00 0.00 33 1010.2
20260509224838 54 131 0.0 0.0 0.00 0.00 0.00 33 1009.9
20260509224334 55 224 0.0 0.0 0.00 0.00 0.00 33 1010.2
20260509223831 55 193 0.0 0.0 0.00 0.00 0.00 33 1009.9
20260509223328 55 206 0.0 0.0 0.00 0.00 0.00 33 1009.9
20260509222825 56 163 0.0 0.0 0.00 0.00 0.00 32 1009.9
20260509222320 56 174 1.0 2.0 0.00 0.00 0.00 31 1009.9
20260509221815 56 215 0.0 0.0 0.00 0.00 0.00 32 1009.9
20260509221313 56 188 0.0 0.0 0.00 0.00 0.00 32 1009.9
20260509220808 56 170 0.0 0.0 0.00 0.00 0.00 32 1009.9
20260509220304 56 185 0.0 0.0 0.00 0.00 0.00 32 1009.9
20260509215800 56 173 0.0 0.0 0.00 0.00 0.00 32 1009.9
20260509215257 56 161 0.0 0.0 0.00 0.00 0.00 31 1009.5
20260509214754 56 187 0.0 0.0 0.00 0.00 0.00 31 1009.9
20260509214251 57 197 0.0 0.0 0.00 0.00 0.00 30 1009.5
20260509213748 58 167 0.0 0.0 0.00 0.00 0.00 30 1009.9
20260509213243 58 235 0.0 8.0 0.00 0.00 0.00 28 1009.9
20260509212741 58 158 0.0 0.0 0.00 0.00 0.00 28 1009.9
20260509212238 58 190 0.0 0.0 0.00 0.00 0.00 31 1009.9
20260509211734 58 274 0.0 0.0 0.00 0.00 0.00 29 1009.9
20260509211230 58 219 0.0 5.0 0.00 0.00 0.00 28 1009.5
20260509210726 59 164 0.0 2.0 0.00 0.00 0.00 28 1009.5
20260509210224 59 192 0.0 0.0 0.00 0.00 0.00 28 1009.5
20260509205719 59 236 0.0 0.0 0.00 0.00 0.00 27 1009.5
20260509205219 59 200 0.0 0.0 0.00 0.00 0.00 27 1009.5
20260509204715 58 73 0.0 0.0 0.00 0.00 0.00 28 1009.9
20260509204211 59 167 0.0 0.0 0.00 0.00 0.00 28 1009.9
20260509203707 59 215 0.0 0.0 0.00 0.00 0.00 28 1009.5
20260509203206 58 101 0.0 0.0 0.00 0.00 0.00 30 1009.5
20260509202701 58 198 0.0 15.0 0.00 0.00 0.00 29 1009.5
20260509202156 58 232 0.0 0.0 0.00 0.00 0.00 29 1009.5
20260509201651 58 75 0.0 0.0 0.00 0.00 0.00 30 1009.5
20260509201149 59 149 0.0 0.0 0.00 0.00 0.00 30 1009.5
20260509200644 59 59 0.0 0.0 0.00 0.00 0.00 29 1009.5
20260509200140 58 177 0.0 0.0 0.00 0.00 0.00 28 1009.5
20260509195636 58 163 0.0 0.0 0.00 0.00 0.00 29 1009.5
20260509195131 59 233 0.0 0.0 0.00 0.00 0.00 27 1009.5
20260509194631 59 194 0.0 0.0 0.00 0.00 0.00 28 1009.5
20260509194128 59 224 0.0 0.0 0.00 0.00 0.00 29 1009.5
20260509193623 59 179 0.0 0.0 0.00 0.00 0.00 27 1009.5
20260509193114 61 248 0.0 0.0 0.00 0.00 0.00 26 1009.5
20260509192611 60 166 0.0 0.0 0.00 0.00 0.00 26 1009.5
20260509192105 60 254 0.0 0.0 0.00 0.00 0.00 25 1009.5
20260509191601 61 255 0.0 0.0 0.00 0.00 0.00 29 1009.5
20260509191057 61 149 0.0 0.0 0.00 0.00 0.00 25 1009.5
20260509190554 61 248 0.0 2.0 0.00 0.00 0.00 26 1009.5
20260509190052 60 205 0.0 10.0 0.00 0.00 0.00 28 1009.5
20260509185549 58 143 0.0 0.0 0.00 0.00 0.00 29 1009.5
20260509185045 59 254 0.0 0.0 0.00 0.00 0.00 28 1009.9
20260509184543 58 177 0.0 0.0 0.00 0.00 0.00 30 1009.9
20260509184039 57 220 0.0 2.0 0.00 0.00 0.00 32 1009.9
20260509183534 57 241 0.0 0.0 0.00 0.00 0.00 31 1009.9
20260509183025 57 213 0.0 0.0 0.00 0.00 0.00 31 1009.9
20260509182521 59 179 0.0 2.0 0.00 0.00 0.00 30 1009.9
20260509182019 59 318 0.0 0.0 0.00 0.00 0.00 27 1009.9
20260509181517 58 127 0.0 0.0 0.00 0.00 0.00 29 1009.5
20260509181014 59 219 0.0 0.0 0.00 0.00 0.00 31 1009.9
20260509180509 57 148 1.0 5.0 0.00 0.00 0.00 32 1009.5
20260509180008 56 206 0.0 0.0 0.00 0.00 0.00 30 1009.9
20260509175502 57 172 0.0 0.0 0.00 0.00 0.00 30 1009.9
20260509174959 57 208 0.0 0.0 0.00 0.00 0.00 30 1009.9
20260509174456 58 135 0.0 8.0 0.00 0.00 0.00 30 1009.9
20260509173950 60 244 0.0 0.0 0.00 0.00 0.00 29 1009.9
20260509173445 57 258 0.0 0.0 0.00 0.00 0.00 29 1009.9
20260509172942 56 261 0.0 2.0 0.00 0.00 0.00 29 1010.2
20260509172439 56 255 0.0 10.0 0.00 0.00 0.00 30 1009.9
20260509171934 56 157 0.0 2.0 0.00 0.00 0.00 31 1009.9
20260509171431 56 233 0.0 0.0 0.00 0.00 0.00 30 1009.9
20260509170927 57 283 0.0 0.0 0.00 0.00 0.00 31 1009.9
20260509170423 55 222 0.0 10.0 0.00 0.00 0.00 31 1009.9
20260509165919 55 255 0.0 10.0 0.00 0.00 0.00 32 1009.9
20260509165413 57 174 0.0 0.0 0.00 0.00 0.00 31 1010.2
20260509164909 57 243 1.0 5.0 0.00 0.00 0.00 32 1010.2
20260509164405 56 256 0.0 0.0 0.00 0.00 0.00 31 1009.9
20260509163901 56 208 0.0 0.0 0.00 0.00 0.00 29 1009.9
20260509163358 56 227 0.0 2.0 0.00 0.00 0.00 29 1009.9
20260509162857 58 288 0.0 0.0 0.00 0.00 0.00 33 1009.9
20260509162356 56 283 0.0 0.0 0.00 0.00 0.00 32 1010.2
20260509161852 55 147 0.0 5.0 0.00 0.00 0.00 34 1010.2
20260509161348 54 193 0.0 0.0 0.00 0.00 0.00 33 1009.9
20260509160844 55 264 0.0 0.0 0.00 0.00 0.00 38 1010.2
20260509160340 54 220 0.0 0.0 0.00 0.00 0.00 38 1010.2